Location: Gull Harbor
(47.1000°N, 122.9000°W)
Time: 12:34:52
(UTC-07:00)

BlueWalker 3 - Pass Details

Date: 04 February 2023
Orbit: 497 x 514 km, 53.2° (Epoch: 01 April)

Event Time Altitude Azimuth Distance (km) Brightness Sun altitude
Rises 17:56:44 0° 281° (W) 2,599 6.9 -6.9°
Reaches altitude 10° 17:59:05 10° 291° (WNW) 1,719 5.5 -7.3°
Maximum altitude 18:02:37 33° 356° (N) 878 3.1 -7.9°
Enters shadow 18:06:06 11° 62° (ENE) 1,702 4.0 -8.5°
